| time (UTC) | temp F | wind direction | speed MPH | gust MPH | rain 1hr in | rain 24hr in | rain mn in | humidity % | barometer mb |
| 20260509114936 | 50 | 307 | 2.0 | 5.0 | 0.02 | 0.05 | 0.05 | 99 | 1007.8 |
| 20260509114435 | 50 | 140 | 1.0 | 7.0 | 0.05 | 0.05 | 0.05 | 99 | 1007.6 |
| 20260509113934 | 50 | 131 | 1.0 | 3.0 | 0.09 | 0.04 | 0.04 | 99 | 1007.7 |
| 20260509113431 | 50 | 135 | 0.0 | 5.0 | 0.07 | 0.04 | 0.04 | 99 | 1007.6 |
| 20260509112927 | 50 | 195 | 2.0 | 5.0 | 0.05 | 0.03 | 0.03 | 99 | 1007.9 |
| 20260509112425 | 49 | 142 | 0.0 | 6.0 | 0.05 | 0.02 | 0.02 | 99 | 1007.8 |
| 20260509111921 | 49 | 208 | 0.0 | 4.0 | 0.02 | 0.02 | 0.02 | 99 | 1007.7 |
| 20260509111419 | 49 | 192 | 1.0 | 3.0 | 0.00 | 0.02 | 0.02 | 99 | 1007.5 |
| 20260509110916 | 49 | 188 | 2.0 | 4.0 | 0.02 | 0.02 | 0.02 | 99 | 1007.5 |
| 20260509110412 | 49 | 178 | 0.0 | 4.0 | 0.00 | 0.01 | 0.01 | 99 | 1007.6 |
| 20260509105910 | 49 | 210 | 2.0 | 8.0 | 0.00 | 0.01 | 0.01 | 99 | 1007.5 |
| 20260509105409 | 49 | 211 | 0.0 | 6.0 | 0.00 | 0.01 | 0.01 | 99 | 1007.5 |
| 20260509104905 | 49 | 206 | 3.0 | 5.0 | 0.00 | 0.01 | 0.01 | 99 | 1007.3 |
| 20260509104402 | 49 | 125 | 0.0 | 4.0 | 0.00 | 0.01 | 0.01 | 99 | 1007.4 |
| 20260509103859 | 49 | 134 | 1.0 | 3.0 | 0.00 | 0.01 | 0.01 | 99 | 1007.4 |
| 20260509103356 | 49 | 119 | 0.0 | 3.0 | 0.00 | 0.01 | 0.01 | 99 | 1007.4 |
| 20260509102855 | 49 | 69 | 0.0 | 2.0 | 0.00 | 0.01 | 0.01 | 99 | 1007.4 |
| 20260509102352 | 48 | 144 | 0.0 | 4.0 | 0.00 | 0.01 | 0.01 | 99 | 1007.3 |
| 20260509101848 | 48 | 212 | 2.0 | 3.0 | 0.00 | 0.01 | 0.01 | 99 | 1007.3 |
| 20260509101344 | 49 | 180 | 0.0 | 4.0 | 0.00 | 0.01 | 0.01 | 99 | 1007.4 |
| 20260509100842 | 48 | 191 | 1.0 | 3.0 | 0.00 | 0.01 | 0.01 | 99 | 1007.2 |
| 20260509100339 | 48 | 214 | 0.0 | 3.0 | 0.00 | 0.01 | 0.01 | 99 | 1007.4 |
| 20260509095836 | 48 | 131 | 0.0 | 1.0 | 0.00 | 0.01 | 0.01 | 99 | 1007.3 |
| 20260509095333 | 48 | 104 | 0.0 | 3.0 | 0.00 | 0.01 | 0.01 | 99 | 1007.4 |
| 20260509094830 | 48 | 18 | 0.0 | 2.0 | 0.00 | 0.01 | 0.01 | 99 | 1007.4 |
| 20260509094326 | 48 | 196 | 0.0 | 3.0 | 0.00 | 0.01 | 0.01 | 99 | 1007.5 |
| 20260509093824 | 48 | 240 | 0.0 | 2.0 | 0.00 | 0.01 | 0.01 | 99 | 1007.6 |
| 20260509093321 | 48 | 231 | 1.0 | 2.0 | 0.00 | 0.01 | 0.01 | 99 | 1007.6 |
| 20260509092820 | 48 | 24 | 0.0 | 3.0 | 0.00 | 0.01 | 0.01 | 99 | 1007.8 |
| 20260509092317 | 48 | 15 | 0.0 | 1.0 | 0.00 | 0.01 | 0.01 | 99 | 1007.9 |
| 20260509091815 | 48 | 235 | 0.0 | 2.0 | 0.00 | 0.01 | 0.01 | 99 | 1007.7 |
| 20260509091312 | 48 | 93 | 1.0 | 2.0 | 0.00 | 0.01 | 0.01 | 99 | 1007.8 |
| 20260509090809 | 48 | 96 | 1.0 | 3.0 | 0.00 | 0.01 | 0.01 | 99 | 1007.7 |
| 20260509090306 | 48 | 92 | 1.0 | 2.0 | 0.00 | 0.01 | 0.01 | 99 | 1007.8 |
| 20260509085803 | 48 | 45 | 0.0 | 2.0 | 0.00 | 0.01 | 0.01 | 99 | 1007.8 |
| 20260509085301 | 48 | 65 | 1.0 | 2.0 | 0.00 | 0.01 | 0.01 | 99 | 1008.0 |
| 20260509084757 | 48 | 108 | 0.0 | 2.0 | 0.00 | 0.01 | 0.01 | 99 | 1008.0 |
| 20260509084254 | 48 | 44 | 0.0 | 1.0 | 0.00 | 0.01 | 0.01 | 99 | 1008.1 |
| 20260509083752 | 48 | 37 | 0.0 | 1.0 | 0.00 | 0.01 | 0.01 | 99 | 1008.1 |
| 20260509083248 | 48 | 135 | 0.0 | 1.0 | 0.00 | 0.01 | 0.01 | 99 | 1008.0 |
| 20260509082745 | 48 | 131 | 0.0 | 2.0 | 0.02 | 0.01 | 0.01 | 99 | 1008.1 |
| 20260509082241 | 48 | 329 | 0.0 | 1.0 | 0.02 | 0.01 | 0.01 | 99 | 1008.5 |
| 20260509081739 | 48 | 6 | 0.0 | 0.0 | 0.00 | 0.01 | 0.01 | 99 | 1008.0 |
| 20260509081236 | 48 | 105 | 2.0 | 2.0 | 0.00 | 0.01 | 0.01 | 99 | 1008.0 |
| 20260509080734 | 48 | 110 | 2.0 | 2.0 | 0.00 | 0.01 | 0.01 | 99 | 1007.9 |
| 20260509080231 | 48 | 72 | 0.0 | 2.0 | 0.00 | 0.01 | 0.01 | 99 | 1008.1 |
| 20260509075729 | 48 | 75 | 0.0 | 1.0 | 0.00 | 0.01 | 0.01 | 99 | 1008.4 |
| 20260509075227 | 48 | 235 | 1.0 | 2.0 | 0.00 | 0.01 | 0.01 | 99 | 1008.4 |
| 20260509074723 | 48 | 269 | 0.0 | 2.0 | 0.00 | 0.01 | 0.01 | 99 | 1008.2 |
| 20260509074221 | 48 | 129 | 0.0 | 1.0 | 0.00 | 0.01 | 0.01 | 99 | 1008.4 |
| 20260509073717 | 48 | 104 | 0.0 | 0.0 | 0.00 | 0.01 | 0.01 | 99 | 1008.2 |
| 20260509073214 | 48 | 104 | 0.0 | 2.0 | 0.02 | 0.01 | 0.01 | 99 | 1008.1 |
| 20260509072710 | 48 | 66 | 0.0 | 1.0 | 0.02 | 0.01 | 0.01 | 99 | 1008.1 |
| 20260509072207 | 48 | 15 | 0.0 | 1.0 | 0.00 | 0.00 | 0.00 | 99 | 1008.2 |
| 20260509071703 | 48 | 224 | 0.0 | 2.0 | 0.00 | 0.00 | 0.00 | 99 | 1008.0 |
| 20260509071201 | 48 | 269 | 0.0 | 1.0 | 0.00 | 0.00 | 0.00 | 99 | 1008.2 |
| 20260509070658 | 48 | 54 | 2.0 | 3.0 | 0.00 | 0.00 | 0.00 | 99 | 1008.0 |
| 20260509070154 | 48 | 109 | 2.0 | 5.0 | 0.00 | 0.00 | 0.00 | 99 | 1007.9 |
| 20260509065650 | 48 | 129 | 1.0 | 3.0 | 0.00 | 0.00 | 0.00 | 99 | 1008.1 |
| 20260509065147 | 48 | 108 | 3.0 | 4.0 | 0.00 | 0.00 | 0.00 | 99 | 1008.5 |
| 20260509064644 | 48 | 116 | 2.0 | 3.0 | 0.00 | 0.00 | 0.00 | 99 | 1008.0 |
| 20260509064142 | 48 | 107 | 2.0 | 3.0 | 0.00 | 0.00 | 0.00 | 99 | 1008.2 |
| 20260509063638 | 48 | 103 | 2.0 | 4.0 | 0.00 | 0.00 | 0.00 | 99 | 1008.2 |
| 20260509063135 | 47 | 95 | 1.0 | 2.0 | 0.00 | 0.00 | 0.00 | 99 | 1008.2 |
| 20260509062632 | 48 | 83 | 1.0 | 2.0 | 0.00 | 0.00 | 0.00 | 99 | 1008.5 |
| 20260509062129 | 48 | 32 | 0.0 | 2.0 | 0.00 | 0.00 | 0.00 | 99 | 1008.5 |
| 20260509061626 | 48 | 129 | 0.0 | 3.0 | 0.00 | 0.00 | 0.00 | 99 | 1008.5 |
| 20260509061123 | 48 | 68 | 2.0 | 3.0 | 0.00 | 0.00 | 0.00 | 99 | 1008.2 |
| 20260509060621 | 48 | 82 | 2.0 | 3.0 | 0.00 | 0.00 | 0.00 | 99 | 1008.6 |
| 20260509060116 | 48 | 69 | 1.0 | 3.0 | 0.00 | 0.00 | 0.00 | 99 | 1008.9 |
| 20260509055612 | 48 | 69 | 2.0 | 3.0 | 0.00 | 0.00 | 0.00 | 99 | 1008.9 |
| 20260509055108 | 48 | 96 | 3.0 | 3.0 | 0.00 | 0.00 | 0.00 | 99 | 1009.0 |
| 20260509054605 | 48 | 72 | 1.0 | 2.0 | 0.00 | 0.00 | 0.00 | 99 | 1008.8 |
| 20260509054103 | 48 | 68 | 1.0 | 3.0 | 0.00 | 0.00 | 0.00 | 99 | 1008.8 |
| 20260509053601 | 48 | 61 | 1.0 | 3.0 | 0.00 | 0.00 | 0.00 | 99 | 1009.0 |
| 20260509053058 | 48 | 77 | 1.0 | 3.0 | 0.00 | 0.00 | 0.00 | 99 | 1009.0 |
| 20260509052556 | 48 | 63 | 0.0 | 2.0 | 0.00 | 0.00 | 0.00 | 99 | 1009.2 |
| 20260509052053 | 48 | 67 | 0.0 | 2.0 | 0.00 | 0.00 | 0.00 | 99 | 1009.4 |
| 20260509051551 | 48 | 61 | 2.0 | 2.0 | 0.00 | 0.00 | 0.00 | 99 | 1009.4 |
| 20260509051048 | 48 | 46 | 1.0 | 2.0 | 0.00 | 0.00 | 0.00 | 99 | 1009.3 |
| 20260509050544 | 48 | 63 | 1.0 | 3.0 | 0.00 | 0.00 | 0.00 | 99 | 1009.5 |
| 20260509050041 | 48 | 75 | 2.0 | 3.0 | 0.00 | 0.00 | 0.00 | 99 | 1009.1 |
| 20260509045539 | 48 | 36 | 0.0 | 2.0 | 0.00 | 0.00 | 0.00 | 99 | 1009.3 |
| 20260509045035 | 48 | 61 | 1.0 | 1.0 | 0.00 | 0.00 | 0.00 | 99 | 1009.2 |
| 20260509044533 | 48 | 69 | 2.0 | 3.0 | 0.00 | 0.00 | 0.00 | 99 | 1009.4 |
| 20260509044030 | 48 | 71 | 2.0 | 2.0 | 0.00 | 0.00 | 0.00 | 99 | 1009.5 |
| 20260509043526 | 48 | 74 | 2.0 | 2.0 | 0.00 | 0.00 | 0.00 | 99 | 1009.4 |
| 20260509043022 | 48 | 72 | 1.0 | 3.0 | 0.00 | 0.00 | 0.00 | 99 | 1009.5 |
| 20260509042518 | 48 | 84 | 1.0 | 2.0 | 0.00 | 0.00 | 0.00 | 99 | 1009.6 |
| 20260509042009 | 48 | 76 | 2.0 | 2.0 | 0.00 | 0.00 | 0.00 | 99 | 1009.6 |
| 20260509041506 | 48 | 86 | 1.0 | 2.0 | 0.02 | 0.00 | 0.00 | 99 | 1009.8 |
| 20260509041004 | 48 | 80 | 1.0 | 2.0 | 0.00 | 0.00 | 0.00 | 99 | 1009.8 |
| 20260509040502 | 48 | 77 | 1.0 | 2.0 | 0.00 | 0.00 | 0.00 | 99 | 1009.8 |
| 20260509035957 | 48 | 85 | 1.0 | 2.0 | 0.00 | 0.06 | 0.06 | 99 | 1009.9 |
| 20260509035455 | 48 | 81 | 1.0 | 2.0 | 0.00 | 0.06 | 0.06 | 99 | 1010.2 |
| 20260509034951 | 48 | 79 | 1.0 | 2.0 | 0.00 | 0.06 | 0.06 | 99 | 1010.0 |
| 20260509034450 | 48 | 89 | 0.0 | 2.0 | 0.00 | 0.06 | 0.06 | 99 | 1010.2 |
| 20260509033946 | 49 | 100 | 2.0 | 3.0 | 0.00 | 0.06 | 0.06 | 99 | 1010.3 |
| 20260509033443 | 49 | 110 | 0.0 | 2.0 | 0.02 | 0.06 | 0.06 | 99 | 1010.3 |
| 20260509032940 | 49 | 88 | 1.0 | 3.0 | 0.02 | 0.06 | 0.06 | 99 | 1010.3 |
| 20260509032437 | 49 | 92 | 2.0 | 2.0 | 0.00 | 0.06 | 0.06 | 99 | 1010.4 |
| 20260509031935 | 49 | 86 | 2.0 | 2.0 | 0.00 | 0.06 | 0.06 | 99 | 1010.4 |
| 20260509031432 | 49 | 84 | 1.0 | 2.0 | 0.00 | 0.06 | 0.06 | 99 | 1010.5 |
| 20260509030929 | 49 | 87 | 1.0 | 2.0 | 0.02 | 0.06 | 0.06 | 99 | 1010.4 |
| 20260509030427 | 49 | 80 | 2.0 | 3.0 | 0.02 | 0.06 | 0.06 | 99 | 1010.6 |
| 20260509025924 | 49 | 41 | 1.0 | 2.0 | 0.00 | 0.06 | 0.06 | 98 | 1010.8 |
| 20260509025420 | 49 | 53 | 0.0 | 2.0 | 0.02 | 0.06 | 0.06 | 98 | 1010.8 |
| 20260509024915 | 49 | 67 | 2.0 | 2.0 | 0.02 | 0.06 | 0.06 | 98 | 1010.8 |
| 20260509024412 | 49 | 72 | 1.0 | 2.0 | 0.02 | 0.05 | 0.05 | 98 | 1011.0 |
| 20260509023909 | 49 | 76 | 1.0 | 1.0 | 0.05 | 0.05 | 0.05 | 98 | 1010.7 |
| 20260509023406 | 49 | 62 | 1.0 | 2.0 | 0.02 | 0.05 | 0.05 | 98 | 1011.3 |
| 20260509022902 | 49 | 56 | 0.0 | 2.0 | 0.02 | 0.04 | 0.04 | 98 | 1011.3 |
| 20260509022359 | 49 | 64 | 2.0 | 2.0 | 0.05 | 0.04 | 0.04 | 98 | 1011.3 |
| 20260509021857 | 49 | 84 | 2.0 | 2.0 | 0.05 | 0.04 | 0.04 | 98 | 1011.3 |
| 20260509021353 | 49 | 109 | 0.0 | 1.0 | 0.02 | 0.03 | 0.03 | 98 | 1011.1 |
| 20260509020851 | 49 | 104 | 0.0 | 0.0 | 0.02 | 0.03 | 0.03 | 98 | 1010.8 |
| 20260509020349 | 49 | 49 | 2.0 | 3.0 | 0.02 | 0.03 | 0.03 | 97 | 1011.0 |
| 20260509015846 | 49 | 69 | 3.0 | 3.0 | 0.00 | 0.02 | 0.02 | 97 | 1011.0 |
| 20260509015344 | 50 | 326 | 1.0 | 3.0 | 0.02 | 0.02 | 0.02 | 97 | 1011.0 |
| 20260509014841 | 50 | 60 | 0.0 | 2.0 | 0.02 | 0.02 | 0.02 | 97 | 1010.9 |
| 20260509014337 | 50 | 76 | 3.0 | 3.0 | 0.00 | 0.02 | 0.02 | 97 | 1010.8 |
| 20260509013834 | 50 | 353 | 1.0 | 3.0 | 0.00 | 0.02 | 0.02 | 96 | 1010.7 |
| 20260509013331 | 50 | 123 | 1.0 | 2.0 | 0.00 | 0.02 | 0.02 | 96 | 1010.6 |
| 20260509012826 | 50 | 113 | 0.0 | 2.0 | 0.00 | 0.02 | 0.02 | 95 | 1010.1 |
| 20260509012323 | 50 | 54 | 0.0 | 2.0 | 0.00 | 0.02 | 0.02 | 95 | 1010.0 |
| 20260509011821 | 50 | 54 | 3.0 | 4.0 | 0.00 | 0.02 | 0.02 | 95 | 1010.0 |
| 20260509011318 | 50 | 59 | 2.0 | 3.0 | 0.00 | 0.02 | 0.02 | 94 | 1009.8 |
| 20260509010816 | 50 | 44 | 3.0 | 4.0 | 0.02 | 0.02 | 0.02 | 94 | 1009.5 |
| 20260509010312 | 50 | 48 | 4.0 | 4.0 | 0.02 | 0.02 | 0.02 | 94 | 1009.7 |
| 20260509005809 | 50 | 17 | 2.0 | 3.0 | 0.00 | 0.02 | 0.02 | 94 | 1009.7 |
| 20260509005308 | 50 | 56 | 2.0 | 4.0 | 0.00 | 0.02 | 0.02 | 94 | 1009.7 |
| 20260509004802 | 50 | 69 | 3.0 | 3.0 | 0.00 | 0.02 | 0.02 | 94 | 1009.6 |
| 20260509004259 | 50 | 55 | 2.0 | 3.0 | 0.00 | 0.02 | 0.02 | 94 | 1009.4 |
| 20260509003757 | 51 | 50 | 2.0 | 3.0 | 0.00 | 0.02 | 0.02 | 94 | 1009.5 |
| 20260509003254 | 51 | 100 | 3.0 | 3.0 | 0.00 | 0.02 | 0.02 | 94 | 1009.6 |
| 20260509002751 | 51 | 75 | 0.0 | 2.0 | 0.00 | 0.02 | 0.02 | 94 | 1009.6 |
| 20260509002249 | 51 | 88 | 1.0 | 2.0 | 0.00 | 0.02 | 0.02 | 94 | 1009.5 |
| 20260509001747 | 51 | 79 | 2.0 | 3.0 | 0.00 | 0.02 | 0.02 | 93 | 1009.5 |
| 20260509001242 | 51 | 104 | 0.0 | 1.0 | 0.00 | 0.02 | 0.02 | 93 | 1009.6 |
| 20260509000740 | 51 | 87 | 2.0 | 2.0 | 0.00 | 0.02 | 0.02 | 93 | 1009.6 |
| 20260509000237 | 51 | 89 | 1.0 | 3.0 | 0.00 | 0.02 | 0.02 | 93 | 1009.7 |
| 20260508235734 | 51 | 75 | 1.0 | 2.0 | 0.00 | 0.02 | 0.02 | 93 | 1009.4 |
| 20260508235231 | 51 | 92 | 2.0 | 3.0 | 0.00 | 0.02 | 0.02 | 93 | 1009.3 |
| 20260508234728 | 51 | 89 | 0.0 | 3.0 | 0.00 | 0.02 | 0.02 | 93 | 1009.2 |
| 20260508234223 | 51 | 76 | 0.0 | 2.0 | 0.00 | 0.02 | 0.02 | 92 | 1009.3 |
| 20260508233718 | 51 | 63 | 0.0 | 2.0 | 0.00 | 0.02 | 0.02 | 92 | 1009.2 |
| 20260508233216 | 51 | 80 | 2.0 | 3.0 | 0.00 | 0.02 | 0.02 | 93 | 1009.2 |
| 20260508232713 | 52 | 79 | 2.0 | 3.0 | 0.00 | 0.02 | 0.02 | 93 | 1009.3 |
| 20260508232209 | 52 | 78 | 2.0 | 3.0 | 0.00 | 0.02 | 0.02 | 93 | 1009.2 |
| 20260508231707 | 51 | 97 | 2.0 | 3.0 | 0.00 | 0.02 | 0.02 | 93 | 1009.3 |
| 20260508231204 | 51 | 84 | 2.0 | 2.0 | 0.00 | 0.02 | 0.02 | 93 | 1009.3 |
| 20260508230701 | 52 | 89 | 1.0 | 2.0 | 0.00 | 0.02 | 0.02 | 92 | 1009.7 |
| 20260508230157 | 52 | 89 | 2.0 | 3.0 | 0.00 | 0.02 | 0.02 | 92 | 1009.8 |
| 20260508225655 | 52 | 68 | 2.0 | 3.0 | 0.00 | 0.02 | 0.02 | 92 | 1009.7 |
| 20260508225150 | 52 | 68 | 1.0 | 2.0 | 0.00 | 0.02 | 0.02 | 92 | 1009.8 |
| 20260508224649 | 52 | 60 | 1.0 | 2.0 | 0.00 | 0.02 | 0.02 | 92 | 1009.8 |
| 20260508224146 | 52 | 84 | 2.0 | 2.0 | 0.00 | 0.02 | 0.02 | 92 | 1009.9 |
| 20260508223644 | 52 | 76 | 2.0 | 2.0 | 0.00 | 0.02 | 0.02 | 91 | 1009.9 |
| 20260508223141 | 52 | 63 | 1.0 | 2.0 | 0.00 | 0.02 | 0.02 | 91 | 1009.8 |
| 20260508222638 | 52 | 54 | 1.0 | 2.0 | 0.00 | 0.02 | 0.02 | 91 | 1009.9 |
| 20260508222135 | 52 | 54 | 2.0 | 2.0 | 0.00 | 0.02 | 0.02 | 91 | 1009.9 |
| 20260508221631 | 52 | 77 | 2.0 | 3.0 | 0.00 | 0.02 | 0.02 | 90 | 1009.8 |
| 20260508221127 | 52 | 59 | 1.0 | 2.0 | 0.00 | 0.02 | 0.02 | 90 | 1010.1 |
| 20260508220624 | 52 | 68 | 1.0 | 2.0 | 0.00 | 0.02 | 0.02 | 90 | 1010.0 |
| 20260508220120 | 52 | 59 | 2.0 | 2.0 | 0.00 | 0.02 | 0.02 | 89 | 1010.1 |
| 20260508215617 | 52 | 54 | 2.0 | 2.0 | 0.00 | 0.02 | 0.02 | 89 | 1010.0 |
| 20260508215114 | 52 | 65 | 1.0 | 2.0 | 0.00 | 0.02 | 0.02 | 89 | 1010.0 |
| 20260508214611 | 52 | 68 | 2.0 | 2.0 | 0.00 | 0.02 | 0.02 | 89 | 1009.9 |
| 20260508214108 | 52 | 64 | 1.0 | 2.0 | 0.00 | 0.02 | 0.02 | 88 | 1009.7 |
| 20260508213605 | 52 | 58 | 2.0 | 3.0 | 0.00 | 0.02 | 0.02 | 88 | 1010.1 |
| 20260508213101 | 52 | 56 | 1.0 | 2.0 | 0.00 | 0.02 | 0.02 | 88 | 1010.3 |
| 20260508212557 | 52 | 49 | 0.0 | 2.0 | 0.00 | 0.02 | 0.02 | 88 | 1010.4 |
| 20260508212054 | 52 | 31 | 0.0 | 1.0 | 0.00 | 0.02 | 0.02 | 87 | 1010.2 |
| 20260508211549 | 52 | 26 | 1.0 | 1.0 | 0.00 | 0.02 | 0.02 | 87 | 1010.0 |
| 20260508211046 | 52 | 135 | 0.0 | 0.0 | 0.00 | 0.02 | 0.02 | 86 | 1010.0 |
| 20260508210542 | 52 | 186 | 0.0 | 1.0 | 0.00 | 0.02 | 0.02 | 85 | 1010.1 |
| 20260508210040 | 52 | 91 | 0.0 | 1.0 | 0.00 | 0.02 | 0.02 | 84 | 1009.9 |
| 20260508205537 | 52 | 76 | 0.0 | 0.0 | 0.00 | 0.02 | 0.02 | 85 | 1010.1 |
| 20260508205033 | 52 | 81 | 1.0 | 2.0 | 0.00 | 0.02 | 0.02 | 85 | 1010.2 |
| 20260508204530 | 52 | 187 | 0.0 | 3.0 | 0.00 | 0.02 | 0.02 | 84 | 1010.1 |
| 20260508204026 | 52 | 211 | 1.0 | 2.0 | 0.00 | 0.02 | 0.02 | 84 | 1010.1 |
| 20260508203522 | 52 | 104 | 0.0 | 2.0 | 0.00 | 0.02 | 0.02 | 85 | 1010.3 |
| 20260508203018 | 52 | 214 | 1.0 | 3.0 | 0.00 | 0.02 | 0.02 | 86 | 1010.4 |
| 20260508202515 | 52 | 257 | 0.0 | 3.0 | 0.00 | 0.02 | 0.02 | 86 | 1010.5 |
| 20260508202012 | 52 | 199 | 0.0 | 3.0 | 0.00 | 0.02 | 0.02 | 85 | 1010.5 |
| 20260508201509 | 51 | 137 | 2.0 | 2.0 | 0.00 | 0.02 | 0.02 | 86 | 1010.5 |
| 20260508201005 | 51 | 177 | 1.0 | 3.0 | 0.02 | 0.02 | 0.02 | 85 | 1010.6 |
| 20260508200502 | 51 | 171 | 2.0 | 3.0 | 0.02 | 0.02 | 0.02 | 85 | 1010.5 |
| 20260508195957 | 51 | 269 | 0.0 | 2.0 | 0.00 | 0.01 | 0.01 | 85 | 1010.9 |
| 20260508195455 | 51 | 147 | 0.0 | 2.0 | 0.00 | 0.01 | 0.01 | 86 | 1010.8 |
| 20260508194950 | 51 | 149 | 0.0 | 1.0 | 0.00 | 0.01 | 0.01 | 85 | 1010.9 |
| 20260508194448 | 51 | 129 | 0.0 | 3.0 | 0.00 | 0.01 | 0.01 | 84 | 1011.3 |
| 20260508193945 | 51 | 302 | 2.0 | 4.0 | 0.00 | 0.01 | 0.01 | 84 | 1011.5 |
| 20260508193442 | 51 | 277 | 0.0 | 6.0 | 0.02 | 0.01 | 0.01 | 83 | 1011.6 |
| 20260508192938 | 51 | 151 | 0.0 | 9.0 | 0.05 | 0.01 | 0.01 | 84 | 1011.7 |
| 20260508192435 | 52 | 61 | 2.0 | 6.0 | 0.02 | 0.01 | 0.01 | 81 | 1011.7 |
| 20260508191932 | 52 | 279 | 2.0 | 10.0 | 0.02 | 0.00 | 0.00 | 79 | 1011.7 |
| 20260508191429 | 53 | 265 | 5.0 | 13.0 | 0.02 | 0.00 | 0.00 | 76 | 1011.7 |
| 20260508190926 | 54 | 263 | 11.0 | 12.0 | 0.00 | 0.00 | 0.00 | 73 | 1011.8 |
| 20260508190423 | 54 | 265 | 14.0 | 14.0 | 0.00 | 0.00 | 0.00 | 73 | 1011.8 |
| 20260508185919 | 54 | 204 | 2.0 | 7.0 | 0.00 | 0.00 | 0.00 | 75 | 1011.7 |
| 20260508185417 | 54 | 207 | 4.0 | 7.0 | 0.00 | 0.00 | 0.00 | 75 | 1011.8 |
| 20260508184914 | 54 | 142 | 3.0 | 5.0 | 0.00 | 0.00 | 0.00 | 73 | 1011.5 |
| 20260508184411 | 54 | 48 | 1.0 | 9.0 | 0.00 | 0.00 | 0.00 | 74 | 1011.6 |
| 20260508183908 | 55 | 169 | 3.0 | 7.0 | 0.00 | 0.00 | 0.00 | 70 | 1011.5 |
| 20260508183404 | 56 | 286 | 5.0 | 8.0 | 0.00 | 0.00 | 0.00 | 66 | 1011.6 |
| 20260508182859 | 56 | 180 | 0.0 | 11.0 | 0.00 | 0.00 | 0.00 | 64 | 1011.5 |
| 20260508182357 | 57 | 273 | 5.0 | 18.0 | 0.00 | 0.00 | 0.00 | 61 | 1011.5 |
| 20260508181852 | 57 | 250 | 5.0 | 11.0 | 0.00 | 0.00 | 0.00 | 63 | 1011.1 |
| 20260508181349 | 57 | 197 | 3.0 | 9.0 | 0.00 | 0.00 | 0.00 | 64 | 1011.0 |
| 20260508180846 | 57 | 134 | 4.0 | 8.0 | 0.00 | 0.00 | 0.00 | 62 | 1011.0 |
| 20260508180343 | 57 | 202 | 3.0 | 10.0 | 0.00 | 0.00 | 0.00 | 61 | 1011.1 |
| 20260508175839 | 57 | 246 | 1.0 | 6.0 | 0.00 | 0.00 | 0.00 | 61 | 1011.1 |
| 20260508175336 | 57 | 143 | 2.0 | 8.0 | 0.00 | 0.00 | 0.00 | 62 | 1011.1 |
| 20260508174834 | 58 | 240 | 7.0 | 11.0 | 0.00 | 0.00 | 0.00 | 61 | 1011.5 |
| 20260508174332 | 57 | 205 | 2.0 | 9.0 | 0.00 | 0.00 | 0.00 | 64 | 1011.1 |
| 20260508173828 | 57 | 210 | 2.0 | 12.0 | 0.00 | 0.00 | 0.00 | 63 | 1011.3 |
| 20260508173325 | 57 | 38 | 2.0 | 9.0 | 0.00 | 0.00 | 0.00 | 64 | 1011.4 |
| 20260508172821 | 57 | 279 | 4.0 | 11.0 | 0.00 | 0.00 | 0.00 | 65 | 1011.3 |
| 20260508172318 | 57 | 199 | 7.0 | 22.0 | 0.00 | 0.00 | 0.00 | 65 | 1010.9 |
| 20260508171814 | 57 | 160 | 3.0 | 10.0 | 0.00 | 0.00 | 0.00 | 63 | 1011.3 |
| 20260508171310 | 58 | 266 | 11.0 | 15.0 | 0.00 | 0.00 | 0.00 | 62 | 1011.3 |
| 20260508170808 | 58 | 76 | 0.0 | 5.0 | 0.00 | 0.00 | 0.00 | 62 | 1011.1 |
| 20260508170306 | 59 | 247 | 6.0 | 10.0 | 0.00 | 0.00 | 0.00 | 58 | 1011.3 |
| 20260508165802 | 58 | 271 | 6.0 | 9.0 | 0.00 | 0.00 | 0.00 | 59 | 1011.3 |
| 20260508165259 | 58 | 233 | 3.0 | 7.0 | 0.00 | 0.00 | 0.00 | 60 | 1011.5 |
| 20260508164755 | 58 | 340 | 1.0 | 5.0 | 0.00 | 0.00 | 0.00 | 61 | 1011.6 |
| 20260508164252 | 59 | 243 | 5.0 | 13.0 | 0.00 | 0.00 | 0.00 | 57 | 1011.4 |
| 20260508163750 | 59 | 268 | 4.0 | 10.0 | 0.00 | 0.00 | 0.00 | 59 | 1011.6 |
| 20260508163248 | 58 | 346 | 2.0 | 8.0 | 0.00 | 0.00 | 0.00 | 60 | 1011.4 |
| 20260508162743 | 59 | 312 | 2.0 | 12.0 | 0.00 | 0.00 | 0.00 | 59 | 1011.6 |
| 20260508162240 | 59 | 278 | 6.0 | 9.0 | 0.00 | 0.00 | 0.00 | 56 | 1011.5 |
| 20260508161737 | 60 | 165 | 2.0 | 14.0 | 0.00 | 0.00 | 0.00 | 59 | 1011.5 |
| 20260508161234 | 59 | 264 | 4.0 | 13.0 | 0.00 | 0.00 | 0.00 | 59 | 1011.7 |
| 20260508160732 | 59 | 268 | 4.0 | 8.0 | 0.00 | 0.00 | 0.00 | 57 | 1011.6 |
| 20260508160231 | 59 | 235 | 3.0 | 9.0 | 0.00 | 0.00 | 0.00 | 59 | 1011.7 |
| 20260508155726 | 59 | 263 | 3.0 | 15.0 | 0.00 | 0.00 | 0.00 | 58 | 1011.7 |
| 20260508155224 | 59 | 276 | 4.0 | 23.0 | 0.00 | 0.00 | 0.00 | 56 | 1011.7 |
| 20260508154720 | 59 | 235 | 8.0 | 11.0 | 0.00 | 0.00 | 0.00 | 57 | 1011.7 |
| 20260508154217 | 59 | 279 | 2.0 | 7.0 | 0.00 | 0.00 | 0.00 | 58 | 1011.8 |
| 20260508153714 | 57 | 228 | 2.0 | 6.0 | 0.00 | 0.00 | 0.00 | 57 | 1011.6 |
| 20260508153211 | 59 | 21 | 2.0 | 9.0 | 0.00 | 0.00 | 0.00 | 57 | 1012.0 |
| 20260508152708 | 58 | 129 | 0.0 | 3.0 | 0.00 | 0.00 | 0.00 | 60 | 1011.8 |
| 20260508152203 | 57 | 231 | 1.0 | 5.0 | 0.00 | 0.00 | 0.00 | 57 | 1011.8 |
| 20260508151700 | 57 | 287 | 5.0 | 12.0 | 0.00 | 0.00 | 0.00 | 56 | 1012.0 |
| 20260508151157 | 57 | 13 | 0.0 | 6.0 | 0.00 | 0.00 | 0.00 | 57 | 1012.0 |
| 20260508150654 | 57 | 281 | 3.0 | 7.0 | 0.00 | 0.00 | 0.00 | 57 | 1012.0 |
| 20260508150150 | 57 | 288 | 6.0 | 11.0 | 0.00 | 0.00 | 0.00 | 56 | 1012.0 |
| 20260508145646 | 56 | 203 | 5.0 | 9.0 | 0.00 | 0.00 | 0.00 | 56 | 1012.2 |
| 20260508145143 | 56 | 214 | 6.0 | 10.0 | 0.00 | 0.00 | 0.00 | 56 | 1012.0 |
| 20260508144640 | 57 | 212 | 2.0 | 5.0 | 0.00 | 0.00 | 0.00 | 56 | 1012.1 |
| 20260508144138 | 56 | 359 | 2.0 | 6.0 | 0.00 | 0.00 | 0.00 | 57 | 1011.9 |
| 20260508143635 | 55 | 207 | 2.0 | 10.0 | 0.00 | 0.00 | 0.00 | 58 | 1011.8 |
| 20260508143132 | 54 | 313 | 1.0 | 12.0 | 0.00 | 0.00 | 0.00 | 58 | 1011.9 |
| 20260508142628 | 54 | 194 | 2.0 | 13.0 | 0.00 | 0.00 | 0.00 | 59 | 1012.0 |
| 20260508142125 | 55 | 245 | 7.0 | 9.0 | 0.00 | 0.00 | 0.00 | 56 | 1012.3 |
| 20260508141622 | 54 | 9 | 2.0 | 5.0 | 0.00 | 0.00 | 0.00 | 59 | 1012.1 |
| 20260508141120 | 53 | 107 | 0.0 | 16.0 | 0.00 | 0.00 | 0.00 | 60 | 1012.0 |
| 20260508140617 | 53 | 230 | 4.0 | 8.0 | 0.00 | 0.00 | 0.00 | 59 | 1012.2 |
| 20260508140114 | 53 | 333 | 3.0 | 6.0 | 0.00 | 0.00 | 0.00 | 60 | 1012.4 |
| 20260508135608 | 53 | 130 | 2.0 | 6.0 | 0.00 | 0.00 | 0.00 | 59 | 1012.4 |
| 20260508135104 | 53 | 177 | 2.0 | 5.0 | 0.00 | 0.00 | 0.00 | 58 | 1012.4 |
| 20260508134602 | 52 | 105 | 2.0 | 4.0 | 0.00 | 0.00 | 0.00 | 62 | 1012.3 |
| 20260508134053 | 52 | 258 | 5.0 | 7.0 | 0.00 | 0.00 | 0.00 | 61 | 1012.3 |
| 20260508133550 | 52 | 176 | 1.0 | 7.0 | 0.00 | 0.00 | 0.00 | 64 | 1012.0 |
| 20260508133047 | 52 | 176 | 2.0 | 7.0 | 0.00 | 0.00 | 0.00 | 62 | 1012.2 |
| 20260508132545 | 51 | 59 | 1.0 | 5.0 | 0.00 | 0.00 | 0.00 | 63 | 1012.2 |
| 20260508132041 | 52 | 187 | 3.0 | 9.0 | 0.00 | 0.00 | 0.00 | 63 | 1012.3 |
| 20260508131537 | 52 | 162 | 2.0 | 3.0 | 0.00 | 0.00 | 0.00 | 64 | 1012.2 |
| 20260508131034 | 50 | 103 | 2.0 | 5.0 | 0.00 | 0.00 | 0.00 | 67 | 1012.3 |
| 20260508130531 | 50 | 179 | 2.0 | 6.0 | 0.00 | 0.00 | 0.00 | 66 | 1012.2 |
| 20260508130027 | 49 | 201 | 1.0 | 2.0 | 0.00 | 0.00 | 0.00 | 70 | 1012.4 |
| 20260508125523 | 49 | 209 | 4.0 | 6.0 | 0.00 | 0.00 | 0.00 | 69 | 1012.2 |
| 20260508125021 | 48 | 280 | 1.0 | 3.0 | 0.00 | 0.00 | 0.00 | 70 | 1012.2 |
| 20260508124518 | 46 | 174 | 1.0 | 3.0 | 0.00 | 0.00 | 0.00 | 73 | 1012.4 |
| 20260508124015 | 46 | 150 | 1.0 | 7.0 | 0.00 | 0.00 | 0.00 | 73 | 1012.4 |
| 20260508123514 | 45 | 225 | 1.0 | 4.0 | 0.00 | 0.00 | 0.00 | 75 | 1012.4 |
| 20260508123010 | 46 | 318 | 1.0 | 5.0 | 0.00 | 0.00 | 0.00 | 75 | 1012.5 |
| 20260508122508 | 45 | 204 | 2.0 | 7.0 | 0.00 | 0.00 | 0.00 | 76 | 1012.5 |
| 20260508122004 | 45 | 89 | 0.0 | 4.0 | 0.00 | 0.00 | 0.00 | 77 | 1012.4 |
| 20260508121502 | 45 | 178 | 0.0 | 5.0 | 0.00 | 0.00 | 0.00 | 76 | 1012.4 |
| 20260508121000 | 45 | 220 | 2.0 | 5.0 | 0.00 | 0.00 | 0.00 | 76 | 1012.4 |
| 20260508120457 | 44 | 147 | 1.0 | 3.0 | 0.00 | 0.00 | 0.00 | 77 | 1012.5 |
| 20260508115955 | 44 | 186 | 1.0 | 3.0 | 0.00 | 0.00 | 0.00 | 76 | 1012.3 |
| 20260508115453 | 44 | 297 | 1.0 | 3.0 | 0.00 | 0.00 | 0.00 | 76 | 1012.6 |